Year,Month,Day,Hour,Minute,Value (Times are PST for temperature in C)
2007,07,13,00,00,17.10
2007,07,13,00,01,17.10
2007,07,13,00,02,17.10
2007,07,13,00,03,17.10
2007,07,13,00,04,17.00
2007,07,13,00,05,17.00
2007,07,13,00,06,17.00
2007,07,13,00,07,17.00
2007,07,13,00,08,17.00
2007,07,13,00,09,17.00
2007,07,13,00,10,17.00
2007,07,13,00,11,17.00
2007,07,13,00,12,17.00
2007,07,13,00,13,17.00
2007,07,13,00,14,17.00
2007,07,13,00,15,17.00
2007,07,13,00,16,17.00
2007,07,13,00,17,17.00
2007,07,13,00,18,17.00
2007,07,13,00,19,17.00
2007,07,13,00,20,17.00
2007,07,13,00,21,17.00
2007,07,13,00,22,17.00
2007,07,13,00,23,17.00
2007,07,13,00,24,16.90
2007,07,13,00,25,16.90
2007,07,13,00,26,17.00
2007,07,13,00,27,17.00
2007,07,13,00,28,17.00
2007,07,13,00,29,17.10
2007,07,13,00,30,17.10
2007,07,13,00,31,17.10
2007,07,13,00,32,17.10
2007,07,13,00,33,17.10
2007,07,13,00,34,17.10
2007,07,13,00,35,17.10
2007,07,13,00,36,17.10
2007,07,13,00,37,17.10
2007,07,13,00,38,17.10
2007,07,13,00,39,17.10
2007,07,13,00,40,17.10
2007,07,13,00,41,17.10
2007,07,13,00,42,17.10
2007,07,13,00,43,17.10
2007,07,13,00,44,17.10
2007,07,13,00,45,17.10
2007,07,13,00,46,17.20
2007,07,13,00,47,17.20
2007,07,13,00,48,17.20
2007,07,13,00,49,17.20
2007,07,13,00,50,17.20
2007,07,13,00,51,17.20
2007,07,13,00,52,17.20
2007,07,13,00,53,17.20
2007,07,13,00,54,17.20
2007,07,13,00,55,17.20
2007,07,13,00,56,17.20
2007,07,13,00,57,17.20
2007,07,13,00,58,17.20
2007,07,13,00,59,17.20
2007,07,13,01,00,17.20
2007,07,13,01,01,17.20
2007,07,13,01,02,17.10
2007,07,13,01,03,17.10
2007,07,13,01,04,17.10
2007,07,13,01,05,17.10
2007,07,13,01,06,17.10
2007,07,13,01,07,17.10
2007,07,13,01,08,17.10
2007,07,13,01,09,17.10
2007,07,13,01,10,17.10
2007,07,13,01,11,17.10
2007,07,13,01,12,17.10
2007,07,13,01,13,17.10
2007,07,13,01,14,17.10
2007,07,13,01,15,17.10
2007,07,13,01,16,17.00
2007,07,13,01,17,17.00
2007,07,13,01,18,17.00
2007,07,13,01,19,17.00
2007,07,13,01,20,17.00
2007,07,13,01,21,17.00
2007,07,13,01,22,17.00
2007,07,13,01,23,17.00
2007,07,13,01,24,17.00
2007,07,13,01,25,16.90
2007,07,13,01,26,16.90
2007,07,13,01,27,16.90
2007,07,13,01,28,16.90
2007,07,13,01,29,16.90
2007,07,13,01,30,16.90
2007,07,13,01,31,16.80
2007,07,13,01,32,16.80
2007,07,13,01,33,16.80
2007,07,13,01,34,16.80
2007,07,13,01,35,16.80
2007,07,13,01,36,16.80
2007,07,13,01,37,16.80
2007,07,13,01,38,16.80
2007,07,13,01,39,16.80
2007,07,13,01,40,16.70
2007,07,13,01,41,16.70
2007,07,13,01,42,16.70
2007,07,13,01,43,16.70
2007,07,13,01,44,16.70
2007,07,13,01,45,16.70
2007,07,13,01,46,16.70
2007,07,13,01,47,16.70
2007,07,13,01,48,16.70
2007,07,13,01,49,16.70
2007,07,13,01,50,16.70
2007,07,13,01,51,16.70
2007,07,13,01,52,16.70
2007,07,13,01,53,16.70
2007,07,13,01,54,16.80
2007,07,13,01,55,16.80
2007,07,13,01,56,16.80
2007,07,13,01,57,16.90
2007,07,13,01,58,16.90
2007,07,13,01,59,16.90
2007,07,13,02,00,16.90
2007,07,13,02,01,16.90
2007,07,13,02,02,16.90
2007,07,13,02,03,16.90
2007,07,13,02,04,16.90
2007,07,13,02,05,16.80
2007,07,13,02,06,16.80
2007,07,13,02,07,16.80
2007,07,13,02,08,16.80
2007,07,13,02,09,16.80
2007,07,13,02,10,16.80
2007,07,13,02,11,16.80
2007,07,13,02,12,16.80
2007,07,13,02,13,16.80
2007,07,13,02,14,16.90
2007,07,13,02,15,16.90
2007,07,13,02,16,16.90
2007,07,13,02,17,16.90
2007,07,13,02,18,16.90
2007,07,13,02,19,16.90
2007,07,13,02,20,16.90
2007,07,13,02,21,16.90
2007,07,13,02,22,16.90
2007,07,13,02,23,16.90
2007,07,13,02,24,16.90
2007,07,13,02,25,16.90
2007,07,13,02,26,16.90
2007,07,13,02,27,17.00
2007,07,13,02,28,17.00
2007,07,13,02,29,17.00
2007,07,13,02,30,17.00
2007,07,13,02,31,17.00
2007,07,13,02,32,17.00
2007,07,13,02,33,17.10
2007,07,13,02,34,17.10
2007,07,13,02,35,17.10
2007,07,13,02,36,17.10
2007,07,13,02,37,17.10
2007,07,13,02,38,17.10
2007,07,13,02,39,17.10
2007,07,13,02,40,17.10
2007,07,13,02,41,17.10
2007,07,13,02,42,17.10
2007,07,13,02,43,17.10
2007,07,13,02,44,17.10
2007,07,13,02,45,17.10
2007,07,13,02,46,17.10
2007,07,13,02,47,17.10
2007,07,13,02,48,17.10
2007,07,13,02,49,17.10
2007,07,13,02,50,17.10
2007,07,13,02,51,17.10
2007,07,13,02,52,17.20
2007,07,13,02,53,17.20
2007,07,13,02,54,17.20
2007,07,13,02,55,17.20
2007,07,13,02,56,17.20
2007,07,13,02,57,17.10
2007,07,13,02,58,17.10
2007,07,13,02,59,17.10
2007,07,13,03,00,17.10
2007,07,13,03,01,17.00
2007,07,13,03,02,17.00
2007,07,13,03,03,17.00
2007,07,13,03,04,17.00
2007,07,13,03,05,17.00
2007,07,13,03,06,17.10
2007,07,13,03,07,17.10
2007,07,13,03,08,17.20
2007,07,13,03,09,17.30
2007,07,13,03,10,17.30
2007,07,13,03,11,17.40
2007,07,13,03,12,17.40
2007,07,13,03,13,17.50
2007,07,13,03,14,17.50
2007,07,13,03,15,17.50
2007,07,13,03,16,17.60
2007,07,13,03,17,17.60
2007,07,13,03,18,17.60
2007,07,13,03,19,17.60
2007,07,13,03,20,17.60
2007,07,13,03,21,17.60
2007,07,13,03,22,17.50
2007,07,13,03,23,17.50
2007,07,13,03,24,17.40
2007,07,13,03,25,17.30
2007,07,13,03,26,17.30
2007,07,13,03,27,17.30
2007,07,13,03,28,17.30
2007,07,13,03,29,17.30
2007,07,13,03,30,17.30
2007,07,13,03,31,17.30
2007,07,13,03,32,17.20
2007,07,13,03,33,17.20
2007,07,13,03,34,17.20
2007,07,13,03,35,17.20
2007,07,13,03,36,17.10
2007,07,13,03,37,17.10
2007,07,13,03,38,17.10
2007,07,13,03,39,17.10
2007,07,13,03,40,17.00
2007,07,13,03,41,17.00
2007,07,13,03,42,17.10
2007,07,13,03,43,17.10
2007,07,13,03,44,17.00
2007,07,13,03,45,17.00
2007,07,13,03,46,16.90
2007,07,13,03,47,16.90
2007,07,13,03,48,16.80
2007,07,13,03,49,16.80
2007,07,13,03,50,16.80
2007,07,13,03,51,16.80
2007,07,13,03,52,16.80
2007,07,13,03,53,16.80
2007,07,13,03,54,16.70
2007,07,13,03,55,16.70
2007,07,13,03,56,16.60
2007,07,13,03,57,16.60
2007,07,13,03,58,16.60
2007,07,13,03,59,16.60
2007,07,13,04,00,16.60
2007,07,13,04,01,16.60
2007,07,13,04,02,16.60
2007,07,13,04,03,16.60
2007,07,13,04,04,16.70
2007,07,13,04,05,16.70
2007,07,13,04,06,16.70
2007,07,13,04,07,16.70
2007,07,13,04,08,16.60
2007,07,13,04,09,16.60
2007,07,13,04,10,16.60
2007,07,13,04,11,16.60
2007,07,13,04,12,16.60
2007,07,13,04,13,16.50
2007,07,13,04,14,16.50
2007,07,13,04,15,16.50
2007,07,13,04,16,16.50
2007,07,13,04,17,16.50
2007,07,13,04,18,16.50
2007,07,13,04,19,16.40
2007,07,13,04,20,16.40
2007,07,13,04,21,16.40
2007,07,13,04,22,16.40
2007,07,13,04,23,16.40
2007,07,13,04,24,16.50
2007,07,13,04,25,16.50
2007,07,13,04,26,16.50
2007,07,13,04,27,16.40
2007,07,13,04,28,16.40
2007,07,13,04,29,16.40
2007,07,13,04,30,16.40
2007,07,13,04,31,16.40
2007,07,13,04,32,16.30
2007,07,13,04,33,16.30
2007,07,13,04,34,16.30
2007,07,13,04,35,16.30
2007,07,13,04,36,16.30
2007,07,13,04,37,16.30
2007,07,13,04,38,16.30
2007,07,13,04,39,16.30
2007,07,13,04,40,16.20
2007,07,13,04,41,16.20
2007,07,13,04,42,16.20
2007,07,13,04,43,16.20
2007,07,13,04,44,16.20
2007,07,13,04,45,16.20
2007,07,13,04,46,16.10
2007,07,13,04,47,16.10
2007,07,13,04,48,16.10
2007,07,13,04,49,16.10
2007,07,13,04,50,16.10
2007,07,13,04,51,16.00
2007,07,13,04,52,16.00
2007,07,13,04,53,16.00
2007,07,13,04,54,16.00
2007,07,13,04,55,15.90
2007,07,13,04,56,15.90
2007,07,13,04,57,15.90
2007,07,13,04,58,15.90
2007,07,13,04,59,15.90
2007,07,13,05,00,15.80
2007,07,13,05,01,15.90
2007,07,13,05,02,15.90
2007,07,13,05,03,15.90
2007,07,13,05,04,15.90
2007,07,13,05,05,15.80
2007,07,13,05,06,15.80
2007,07,13,05,07,15.80
2007,07,13,05,08,15.80
2007,07,13,05,09,15.80
2007,07,13,05,10,15.80
2007,07,13,05,11,15.80
2007,07,13,05,12,15.80
2007,07,13,05,13,15.80
2007,07,13,05,14,15.70
2007,07,13,05,15,15.70
2007,07,13,05,16,15.70
2007,07,13,05,17,15.70
2007,07,13,05,18,15.70
2007,07,13,05,19,15.70
2007,07,13,05,20,15.70
2007,07,13,05,21,15.70
2007,07,13,05,22,15.80
2007,07,13,05,23,15.80
2007,07,13,05,24,15.80
2007,07,13,05,25,15.90
2007,07,13,05,26,15.90
2007,07,13,05,27,15.90
2007,07,13,05,28,15.90
2007,07,13,05,29,16.00
2007,07,13,05,30,16.00
2007,07,13,05,31,16.00
2007,07,13,05,32,16.00
2007,07,13,05,33,16.10
2007,07,13,05,34,16.10
2007,07,13,05,35,16.10
2007,07,13,05,36,16.10
2007,07,13,05,37,16.10
2007,07,13,05,38,16.10
2007,07,13,05,39,16.10
2007,07,13,05,40,16.10
2007,07,13,05,41,16.10
2007,07,13,05,42,16.10
2007,07,13,05,43,16.10
2007,07,13,05,44,16.10
2007,07,13,05,45,16.10
2007,07,13,05,46,16.10
2007,07,13,05,47,16.10
2007,07,13,05,48,16.00
2007,07,13,05,49,16.00
2007,07,13,05,50,16.00
2007,07,13,05,51,15.90
2007,07,13,05,52,15.90
2007,07,13,05,53,15.80
2007,07,13,05,54,15.80
2007,07,13,05,55,15.80
2007,07,13,05,56,15.80
2007,07,13,05,57,15.80
2007,07,13,05,58,15.80
2007,07,13,05,59,15.80
2007,07,13,06,00,15.80
2007,07,13,06,01,15.80
2007,07,13,06,02,15.80
2007,07,13,06,03,15.80
2007,07,13,06,04,15.80
2007,07,13,06,05,15.80
2007,07,13,06,06,15.80
2007,07,13,06,07,15.80
2007,07,13,06,08,15.80
2007,07,13,06,09,15.90
2007,07,13,06,10,15.90
2007,07,13,06,11,15.90
2007,07,13,06,12,15.90
2007,07,13,06,13,15.90
2007,07,13,06,14,16.00
2007,07,13,06,15,16.00
2007,07,13,06,16,16.00
2007,07,13,06,17,16.00
2007,07,13,06,18,16.00
2007,07,13,06,19,16.00
2007,07,13,06,20,16.00
2007,07,13,06,21,16.00
2007,07,13,06,22,16.00
2007,07,13,06,23,16.00
2007,07,13,06,24,16.00
2007,07,13,06,25,16.00
2007,07,13,06,26,16.00
2007,07,13,06,27,16.10
2007,07,13,06,28,16.10
2007,07,13,06,29,16.10
2007,07,13,06,30,16.10
2007,07,13,06,31,16.20
2007,07,13,06,32,16.20
2007,07,13,06,33,16.20
2007,07,13,06,34,16.20
2007,07,13,06,35,16.30
2007,07,13,06,36,16.30
2007,07,13,06,37,16.40
2007,07,13,06,38,16.40
2007,07,13,06,39,16.50
2007,07,13,06,40,16.50
2007,07,13,06,41,16.60
2007,07,13,06,42,16.60
2007,07,13,06,43,16.70
2007,07,13,06,44,16.70
2007,07,13,06,45,16.70
2007,07,13,06,46,16.80
2007,07,13,06,47,16.80
2007,07,13,06,48,16.90
2007,07,13,06,49,16.90
2007,07,13,06,50,17.00
2007,07,13,06,51,17.10
2007,07,13,06,52,17.10
2007,07,13,06,53,17.20
2007,07,13,06,54,17.20
2007,07,13,06,55,17.20
2007,07,13,06,56,17.30
2007,07,13,06,57,17.30
2007,07,13,06,58,17.30
2007,07,13,06,59,17.40
2007,07,13,07,00,17.40
2007,07,13,07,01,17.50
2007,07,13,07,02,17.50
2007,07,13,07,03,17.60
2007,07,13,07,04,17.60
2007,07,13,07,05,17.70
2007,07,13,07,06,17.70
2007,07,13,07,07,17.80
2007,07,13,07,08,17.80
2007,07,13,07,09,17.90
2007,07,13,07,10,17.90
2007,07,13,07,11,18.00
2007,07,13,07,12,18.10
2007,07,13,07,13,18.20
2007,07,13,07,14,18.30
2007,07,13,07,15,18.30
2007,07,13,07,16,18.40
2007,07,13,07,17,18.40
2007,07,13,07,18,18.40
2007,07,13,07,19,18.40
2007,07,13,07,20,18.40
2007,07,13,07,21,18.40
2007,07,13,07,22,18.40
2007,07,13,07,23,18.40
2007,07,13,07,24,18.50
2007,07,13,07,25,18.50
2007,07,13,07,26,18.50
2007,07,13,07,27,18.50
2007,07,13,07,28,18.50
2007,07,13,07,29,18.50
2007,07,13,07,30,18.60
2007,07,13,07,31,18.60
2007,07,13,07,32,18.60
2007,07,13,07,33,18.60
2007,07,13,07,34,18.60
2007,07,13,07,35,18.70
2007,07,13,07,36,18.70
2007,07,13,07,37,18.70
2007,07,13,07,38,18.70
2007,07,13,07,39,18.70
2007,07,13,07,40,18.60
2007,07,13,07,41,18.60
2007,07,13,07,42,18.60
2007,07,13,07,43,18.60
2007,07,13,07,44,18.60
2007,07,13,07,45,18.70
2007,07,13,07,46,18.60
2007,07,13,07,47,18.70
2007,07,13,07,48,18.70
2007,07,13,07,49,18.70
2007,07,13,07,50,18.70
2007,07,13,07,51,18.70
2007,07,13,07,52,18.70
2007,07,13,07,53,18.60
2007,07,13,07,54,18.60
2007,07,13,07,55,18.60
2007,07,13,07,56,18.60
2007,07,13,07,57,18.70
2007,07,13,07,58,18.70
2007,07,13,07,59,18.70
2007,07,13,08,00,18.70
2007,07,13,08,01,18.70
2007,07,13,08,02,18.70
2007,07,13,08,03,18.70
2007,07,13,08,04,18.70
2007,07,13,08,05,18.70
2007,07,13,08,06,18.80
2007,07,13,08,07,18.80
2007,07,13,08,08,18.80
2007,07,13,08,09,18.80
2007,07,13,08,10,18.80
2007,07,13,08,11,18.80
2007,07,13,08,12,18.80
2007,07,13,08,13,18.80
2007,07,13,08,14,18.80
2007,07,13,08,15,18.80
2007,07,13,08,16,18.80
2007,07,13,08,17,18.80
2007,07,13,08,18,18.80
2007,07,13,08,19,18.90
2007,07,13,08,20,18.90
2007,07,13,08,21,19.00
2007,07,13,08,22,19.00
2007,07,13,08,23,19.10
2007,07,13,08,24,19.10
2007,07,13,08,25,19.20
2007,07,13,08,26,19.20
2007,07,13,08,27,19.30
2007,07,13,08,28,19.40
2007,07,13,08,29,19.40
2007,07,13,08,30,19.40
2007,07,13,08,31,19.40
2007,07,13,08,32,19.40
2007,07,13,08,33,19.40
2007,07,13,08,34,19.40
2007,07,13,08,35,19.40
2007,07,13,08,36,19.40
2007,07,13,08,37,19.40
2007,07,13,08,38,19.40
2007,07,13,08,39,19.40
2007,07,13,08,40,19.40
2007,07,13,08,41,19.30
2007,07,13,08,42,19.30
2007,07,13,08,43,19.30
2007,07,13,08,44,19.40
2007,07,13,08,45,19.40
2007,07,13,08,46,19.40
2007,07,13,08,47,19.40
2007,07,13,08,48,19.40
2007,07,13,08,49,19.30
2007,07,13,08,50,19.30
2007,07,13,08,51,19.30
2007,07,13,08,52,19.30
2007,07,13,08,53,19.30
2007,07,13,08,54,19.30
2007,07,13,08,55,19.30
2007,07,13,08,56,19.30
2007,07,13,08,57,19.30
2007,07,13,08,58,19.40
2007,07,13,08,59,19.40
2007,07,13,09,00,19.40
2007,07,13,09,01,19.40
2007,07,13,09,02,19.40
2007,07,13,09,03,19.40
2007,07,13,09,04,19.40
2007,07,13,09,05,19.30
2007,07,13,09,06,19.30
2007,07,13,09,07,19.30
2007,07,13,09,08,19.30
2007,07,13,09,09,19.20
2007,07,13,09,10,19.20
2007,07,13,09,11,19.20
2007,07,13,09,12,19.20
2007,07,13,09,13,19.20
2007,07,13,09,14,19.20
2007,07,13,09,15,19.20
2007,07,13,09,16,19.20
2007,07,13,09,17,19.20
2007,07,13,09,18,19.20
2007,07,13,09,19,19.20
2007,07,13,09,20,19.20
2007,07,13,09,21,19.20
2007,07,13,09,22,19.20
2007,07,13,09,23,19.20
2007,07,13,09,24,19.20
2007,07,13,09,25,19.20
2007,07,13,09,26,19.10
2007,07,13,09,27,19.10
2007,07,13,09,28,19.10
2007,07,13,09,29,19.10
2007,07,13,09,30,19.10
2007,07,13,09,31,19.00
2007,07,13,09,32,19.00
2007,07,13,09,33,19.00
2007,07,13,09,34,19.00
2007,07,13,09,35,19.00
2007,07,13,09,36,19.00
2007,07,13,09,37,19.00
2007,07,13,09,38,19.00
2007,07,13,09,39,19.00
2007,07,13,09,40,19.10
2007,07,13,09,41,19.00
2007,07,13,09,42,19.10
2007,07,13,09,43,19.10
2007,07,13,09,44,19.10
2007,07,13,09,45,19.10
2007,07,13,09,46,19.10
2007,07,13,09,47,19.20
2007,07,13,09,48,19.20
2007,07,13,09,49,19.20
2007,07,13,09,50,19.20
2007,07,13,09,51,19.30
2007,07,13,09,52,19.30
2007,07,13,09,53,19.40
2007,07,13,09,54,19.50
2007,07,13,09,55,19.60
2007,07,13,09,56,19.70
2007,07,13,09,57,19.80
2007,07,13,09,58,19.80
2007,07,13,09,59,19.90
2007,07,13,10,00,20.00
2007,07,13,10,01,20.00
2007,07,13,10,02,20.10
2007,07,13,10,03,20.20
2007,07,13,10,04,20.30
2007,07,13,10,05,20.40
2007,07,13,10,06,20.40
2007,07,13,10,07,20.40
2007,07,13,10,08,20.40
2007,07,13,10,09,20.40
2007,07,13,10,10,20.40
2007,07,13,10,11,20.40
2007,07,13,10,12,20.40
2007,07,13,10,13,20.40
2007,07,13,10,14,20.40
2007,07,13,10,15,20.50
2007,07,13,10,16,20.50
2007,07,13,10,17,20.70
2007,07,13,10,18,20.80
2007,07,13,10,19,20.90
2007,07,13,10,20,20.90
2007,07,13,10,21,20.80
2007,07,13,10,22,20.80
2007,07,13,10,23,20.70
2007,07,13,10,24,20.70
2007,07,13,10,25,20.60
2007,07,13,10,26,20.60
2007,07,13,10,27,20.60
2007,07,13,10,28,20.50
2007,07,13,10,29,20.50
2007,07,13,10,30,20.50
2007,07,13,10,31,20.60
2007,07,13,10,32,20.60
2007,07,13,10,33,20.70
2007,07,13,10,34,20.80
2007,07,13,10,35,20.80
2007,07,13,10,36,20.70
2007,07,13,10,37,20.40
2007,07,13,10,38,20.20
2007,07,13,10,39,20.10
2007,07,13,10,40,19.90
2007,07,13,10,41,19.80
2007,07,13,10,42,19.70
2007,07,13,10,43,19.70
2007,07,13,10,44,19.80
2007,07,13,10,45,19.80
2007,07,13,10,46,19.80
2007,07,13,10,47,19.80
2007,07,13,10,48,19.80
2007,07,13,10,49,19.90
2007,07,13,10,50,19.90
2007,07,13,10,51,20.00
2007,07,13,10,52,20.00
2007,07,13,10,53,19.90
2007,07,13,10,54,20.00
2007,07,13,10,55,20.00
2007,07,13,10,56,20.00
2007,07,13,10,57,19.90
2007,07,13,10,58,19.90
2007,07,13,10,59,19.90
2007,07,13,11,00,19.80
2007,07,13,11,01,19.80
2007,07,13,11,02,19.70
2007,07,13,11,03,19.70
2007,07,13,11,04,19.70
2007,07,13,11,05,19.70
2007,07,13,11,06,19.80
2007,07,13,11,07,19.80
2007,07,13,11,08,19.90
2007,07,13,11,09,19.90
2007,07,13,11,10,20.00
2007,07,13,11,11,20.00
2007,07,13,11,12,20.10
2007,07,13,11,13,20.10
2007,07,13,11,14,20.10
2007,07,13,11,15,20.10
2007,07,13,11,16,20.10
2007,07,13,11,17,20.00
2007,07,13,11,18,20.00
2007,07,13,11,19,20.00
2007,07,13,11,20,20.00
2007,07,13,11,21,20.00
2007,07,13,11,22,20.10
2007,07,13,11,23,20.10
2007,07,13,11,24,20.20
2007,07,13,11,25,20.10
2007,07,13,11,26,20.10
2007,07,13,11,27,20.00
2007,07,13,11,28,20.00
2007,07,13,11,29,19.90
2007,07,13,11,30,19.90
2007,07,13,11,31,19.80
2007,07,13,11,32,19.80
2007,07,13,11,33,19.80
2007,07,13,11,34,19.80
2007,07,13,11,35,19.80
2007,07,13,11,36,19.90
2007,07,13,11,37,20.00
2007,07,13,11,38,20.10
2007,07,13,11,39,20.20
2007,07,13,11,40,20.40
2007,07,13,11,41,20.50
2007,07,13,11,42,20.70
2007,07,13,11,43,20.80
2007,07,13,11,44,20.90
2007,07,13,11,45,20.90
2007,07,13,11,46,20.80
2007,07,13,11,47,20.80
2007,07,13,11,48,20.80
2007,07,13,11,49,20.70
2007,07,13,11,50,20.60
2007,07,13,11,51,20.60
2007,07,13,11,52,20.40
2007,07,13,11,53,20.30
2007,07,13,11,54,20.20
2007,07,13,11,55,20.20
2007,07,13,11,56,20.20
2007,07,13,11,57,20.20
2007,07,13,11,58,20.20
2007,07,13,11,59,20.30
2007,07,13,12,00,20.30
2007,07,13,12,01,20.40
2007,07,13,12,02,20.40
2007,07,13,12,03,20.40
2007,07,13,12,04,20.40
2007,07,13,12,05,20.30
2007,07,13,12,06,20.30
2007,07,13,12,07,20.20
2007,07,13,12,08,20.20
2007,07,13,12,09,20.20
2007,07,13,12,10,20.10
2007,07,13,12,11,20.10
2007,07,13,12,12,20.10
2007,07,13,12,13,20.10
2007,07,13,12,14,20.10
2007,07,13,12,15,20.00
2007,07,13,12,16,20.10
2007,07,13,12,17,20.10
2007,07,13,12,18,20.10
2007,07,13,12,19,20.10
2007,07,13,12,20,20.00
2007,07,13,12,21,20.00
2007,07,13,12,22,20.00
2007,07,13,12,23,19.90
2007,07,13,12,24,19.80
2007,07,13,12,25,19.60
2007,07,13,12,26,19.40
2007,07,13,12,27,19.30
2007,07,13,12,28,19.00
2007,07,13,12,29,18.80
2007,07,13,12,30,18.70
2007,07,13,12,31,18.60
2007,07,13,12,32,18.60
2007,07,13,12,33,18.50
2007,07,13,12,34,18.40
2007,07,13,12,35,18.50
2007,07,13,12,36,18.50
2007,07,13,12,37,18.50
2007,07,13,12,38,18.50
2007,07,13,12,39,18.40
2007,07,13,12,40,18.40
2007,07,13,12,41,18.40
2007,07,13,12,42,18.40
2007,07,13,12,43,18.40
2007,07,13,12,44,18.40
2007,07,13,12,45,18.40
2007,07,13,12,46,18.40
2007,07,13,12,47,18.50
2007,07,13,12,48,18.50
2007,07,13,12,49,18.60
2007,07,13,12,50,18.60
2007,07,13,12,51,18.60
2007,07,13,12,52,18.70
2007,07,13,12,53,18.70
2007,07,13,12,54,18.70
2007,07,13,12,55,18.70
2007,07,13,12,56,18.60
2007,07,13,12,57,18.60
2007,07,13,12,58,18.50
2007,07,13,12,59,18.40
2007,07,13,13,00,18.40
2007,07,13,13,01,18.30
2007,07,13,13,02,18.20
2007,07,13,13,03,18.20
2007,07,13,13,04,18.20
2007,07,13,13,05,18.20
2007,07,13,13,06,18.20
2007,07,13,13,07,18.20
2007,07,13,13,08,18.10
2007,07,13,13,09,18.10
2007,07,13,13,10,18.00
2007,07,13,13,11,18.00
2007,07,13,13,12,17.90
2007,07,13,13,13,17.90
2007,07,13,13,14,17.90
2007,07,13,13,15,17.90
2007,07,13,13,16,18.00
2007,07,13,13,17,18.00
2007,07,13,13,18,18.00
2007,07,13,13,19,18.00
2007,07,13,13,20,18.10
2007,07,13,13,21,18.10
2007,07,13,13,22,18.00
2007,07,13,13,23,18.00
2007,07,13,13,24,18.00
2007,07,13,13,25,18.10
2007,07,13,13,26,18.10
2007,07,13,13,27,18.10
2007,07,13,13,28,18.10
2007,07,13,13,29,18.10
2007,07,13,13,30,18.10
2007,07,13,13,31,18.10
2007,07,13,13,32,18.20
2007,07,13,13,33,18.20
2007,07,13,13,34,18.20
2007,07,13,13,35,18.20
2007,07,13,13,36,18.20
2007,07,13,13,37,18.20
2007,07,13,13,38,18.20
2007,07,13,13,39,18.20
2007,07,13,13,40,18.20
2007,07,13,13,41,18.20
2007,07,13,13,42,18.20
2007,07,13,13,43,18.20
2007,07,13,13,44,18.20
2007,07,13,13,45,18.10
2007,07,13,13,46,18.10
2007,07,13,13,47,18.00
2007,07,13,13,48,18.00
2007,07,13,13,49,17.90
2007,07,13,13,50,18.00
2007,07,13,13,51,18.00
2007,07,13,13,52,17.90
2007,07,13,13,53,17.90
2007,07,13,13,54,17.90
2007,07,13,13,55,17.90
2007,07,13,13,56,17.90
2007,07,13,13,57,17.90
2007,07,13,13,58,18.00
2007,07,13,13,59,18.00
2007,07,13,14,00,18.10
2007,07,13,14,01,18.10
2007,07,13,14,02,18.20
2007,07,13,14,03,18.30
2007,07,13,14,04,18.40
2007,07,13,14,05,18.50
2007,07,13,14,06,18.60
2007,07,13,14,07,18.70
2007,07,13,14,08,18.80
2007,07,13,14,09,18.80
2007,07,13,14,10,18.90
2007,07,13,14,11,18.90
2007,07,13,14,12,18.90
2007,07,13,14,13,19.00
2007,07,13,14,14,19.00
2007,07,13,14,15,19.10
2007,07,13,14,16,19.10
2007,07,13,14,17,19.20
2007,07,13,14,18,19.30
2007,07,13,14,19,19.30
2007,07,13,14,20,19.40
2007,07,13,14,21,19.50
2007,07,13,14,22,19.50
2007,07,13,14,23,19.50
2007,07,13,14,24,19.40
2007,07,13,14,25,19.20
2007,07,13,14,26,19.20
2007,07,13,14,27,19.00
2007,07,13,14,28,19.00
2007,07,13,14,29,18.90
2007,07,13,14,30,18.90
2007,07,13,14,31,18.80
2007,07,13,14,32,18.80
2007,07,13,14,33,18.80
2007,07,13,14,34,18.80
2007,07,13,14,35,18.80
2007,07,13,14,36,18.80
2007,07,13,14,37,18.90
2007,07,13,14,38,18.90
2007,07,13,14,39,19.00
2007,07,13,14,40,19.00
2007,07,13,14,41,19.10
2007,07,13,14,42,19.10
2007,07,13,14,43,19.10
2007,07,13,14,44,19.20
2007,07,13,14,45,19.30
2007,07,13,14,46,19.30
2007,07,13,14,47,19.40
2007,07,13,14,48,19.60
2007,07,13,14,49,19.70
2007,07,13,14,50,19.80
2007,07,13,14,51,19.90
2007,07,13,14,52,20.00
2007,07,13,14,53,20.00
2007,07,13,14,54,19.90
2007,07,13,14,55,19.80
2007,07,13,14,56,19.80
2007,07,13,14,57,19.90
2007,07,13,14,58,19.90
2007,07,13,14,59,19.80
2007,07,13,15,00,19.80
2007,07,13,15,01,19.90
2007,07,13,15,02,19.90
2007,07,13,15,03,20.00
2007,07,13,15,04,20.00
2007,07,13,15,05,19.90
2007,07,13,15,06,19.90
2007,07,13,15,07,20.00
2007,07,13,15,08,20.00
2007,07,13,15,09,20.00
2007,07,13,15,10,20.00
2007,07,13,15,11,19.90
2007,07,13,15,12,19.90
2007,07,13,15,13,20.00
2007,07,13,15,14,20.20
2007,07,13,15,15,20.40
2007,07,13,15,16,20.60
2007,07,13,15,17,20.80
2007,07,13,15,18,20.90
2007,07,13,15,19,21.00
2007,07,13,15,20,21.20
2007,07,13,15,21,21.30
2007,07,13,15,22,21.40
2007,07,13,15,23,21.40
2007,07,13,15,24,21.50
2007,07,13,15,25,21.50
2007,07,13,15,26,21.50
2007,07,13,15,27,21.50
2007,07,13,15,28,21.40
2007,07,13,15,29,21.30
2007,07,13,15,30,21.30
2007,07,13,15,31,21.50
2007,07,13,15,32,21.60
2007,07,13,15,33,21.70
2007,07,13,15,34,21.80
2007,07,13,15,35,21.90
2007,07,13,15,36,21.90
2007,07,13,15,37,21.90
2007,07,13,15,38,21.90
2007,07,13,15,39,21.90
2007,07,13,15,40,22.00
2007,07,13,15,41,22.10
2007,07,13,15,42,22.10
2007,07,13,15,43,22.10
2007,07,13,15,44,22.10
2007,07,13,15,45,22.10
2007,07,13,15,46,22.10
2007,07,13,15,47,22.10
2007,07,13,15,48,22.10
2007,07,13,15,49,22.10
2007,07,13,15,50,22.00
2007,07,13,15,51,22.00
2007,07,13,15,52,22.00
2007,07,13,15,53,22.00
2007,07,13,15,54,22.00
2007,07,13,15,55,22.00
2007,07,13,15,56,22.00
2007,07,13,15,57,22.00
2007,07,13,15,58,22.00
2007,07,13,15,59,22.10
2007,07,13,16,00,22.20
2007,07,13,16,01,22.20
2007,07,13,16,02,22.20
2007,07,13,16,03,22.20
2007,07,13,16,04,22.20
2007,07,13,16,05,22.20
2007,07,13,16,06,22.20
2007,07,13,16,07,22.30
2007,07,13,16,08,22.30
2007,07,13,16,09,22.30
2007,07,13,16,10,22.40
2007,07,13,16,11,22.30
2007,07,13,16,12,22.20
2007,07,13,16,13,22.20
2007,07,13,16,14,22.20
2007,07,13,16,15,22.20
2007,07,13,16,16,22.30
2007,07,13,16,17,22.20
2007,07,13,16,18,22.20
2007,07,13,16,19,22.20
2007,07,13,16,20,22.20
2007,07,13,16,21,22.20
2007,07,13,16,22,22.20
2007,07,13,16,23,22.10
2007,07,13,16,24,22.10
2007,07,13,16,25,22.00
2007,07,13,16,26,21.90
2007,07,13,16,27,21.80
2007,07,13,16,28,21.80
2007,07,13,16,29,21.90
2007,07,13,16,30,21.90
2007,07,13,16,31,21.90
2007,07,13,16,32,22.00
2007,07,13,16,33,22.10
2007,07,13,16,34,22.10
2007,07,13,16,35,22.20
2007,07,13,16,36,22.20
2007,07,13,16,37,22.30
2007,07,13,16,38,22.40
2007,07,13,16,39,22.40
2007,07,13,16,40,22.30
2007,07,13,16,41,22.30
2007,07,13,16,42,22.40
2007,07,13,16,43,22.50
2007,07,13,16,44,22.70
2007,07,13,16,45,22.80
2007,07,13,16,46,22.90
2007,07,13,16,47,23.00
2007,07,13,16,48,23.00
2007,07,13,16,49,23.00
2007,07,13,16,50,23.00
2007,07,13,16,51,23.00
2007,07,13,16,52,23.00
2007,07,13,16,53,23.00
2007,07,13,16,54,23.10
2007,07,13,16,55,23.20
2007,07,13,16,56,23.30
2007,07,13,16,57,23.40
2007,07,13,16,58,23.30
2007,07,13,16,59,23.20
2007,07,13,17,00,23.00
2007,07,13,17,01,22.80
2007,07,13,17,02,22.50
2007,07,13,17,03,22.30
2007,07,13,17,04,22.20
2007,07,13,17,05,22.20
2007,07,13,17,06,22.10
2007,07,13,17,07,22.10
2007,07,13,17,08,22.20
2007,07,13,17,09,22.20
2007,07,13,17,10,22.30
2007,07,13,17,11,22.40
2007,07,13,17,12,22.60
2007,07,13,17,13,22.60
2007,07,13,17,14,22.70
2007,07,13,17,15,22.80
2007,07,13,17,16,22.90
2007,07,13,17,17,23.00
2007,07,13,17,18,23.00
2007,07,13,17,19,23.10